Time,TemperatureF,DewpointF,PressureIn,WindDirection,WindDirectionDegrees,WindSpeedMPH,WindSpeedGustMPH,Humidity,HourlyPrecipIn,Conditions,Clouds,dailyrainin,SoftwareType,DateUTC
2013-03-31 00:00:00,33.2,25.2,30.12,SSW,199,0.0,0.0,72,0.00,,,0.00,WeatherCatV1.11B39,2013-03-31 04:00:00,
2013-03-31 00:01:00,33.2,25.2,30.12,SSW,198,0.0,0.0,72,0.00,,,0.00,WeatherCatV1.11B39,2013-03-31 04:01:00,
2013-03-31 00:06:00,33.0,25.0,30.12,SSW,198,0.0,0.0,72,0.00,,,0.00,WeatherCatV1.11B39,2013-03-31 04:06:00,
2013-03-31 00:11:00,32.8,25.1,30.12,SSW,198,0.0,0.0,73,0.00,,,0.00,WeatherCatV1.11B39,2013-03-31 04:11:00,
2013-03-31 00:16:00,32.8,25.1,30.12,SSW,199,0.0,0.0,73,0.00,,,0.00,WeatherCatV1.11B39,2013-03-31 04:16:00,
2013-03-31 00:21:00,32.7,25.0,30.12,SSW,198,0.0,0.0,73,0.00,,,0.00,WeatherCatV1.11B39,2013-03-31 04:21:00,
2013-03-31 00:26:00,32.5,25.2,30.12,SSW,198,0.0,0.0,74,0.00,,,0.00,WeatherCatV1.11B39,2013-03-31 04:26:00,
2013-03-31 00:31:00,32.2,24.9,30.13,SSW,198,0.0,0.0,74,0.00,,,0.00,WeatherCatV1.11B39,2013-03-31 04:31:00,
2013-03-31 00:36:00,32.0,25.0,30.13,SSW,198,0.0,0.0,75,0.00,,,0.00,WeatherCatV1.11B39,2013-03-31 04:36:00,
2013-03-31 00:41:00,31.8,24.8,30.13,SSW,199,0.0,0.0,75,0.00,,,0.00,WeatherCatV1.11B39,2013-03-31 04:41:00,
2013-03-31 00:46:00,31.6,24.6,30.13,SSW,198,0.0,0.0,75,0.00,,,0.00,WeatherCatV1.11B39,2013-03-31 04:46:00,
2013-03-31 00:51:00,31.8,25.4,30.13,SSW,199,0.0,0.0,77,0.00,,,0.00,WeatherCatV1.11B39,2013-03-31 04:51:00,
2013-03-31 00:56:00,32.1,25.4,30.13,SSW,198,0.0,0.0,76,0.00,,,0.00,WeatherCatV1.11B39,2013-03-31 04:56:00,
2013-03-31 01:01:00,32.0,25.3,30.13,SSW,198,0.0,0.0,76,0.00,,,0.00,WeatherCatV1.11B39,2013-03-31 05:01:00,
2013-03-31 01:06:00,31.9,25.5,30.14,SSW,198,0.0,0.0,77,0.00,,,0.00,WeatherCatV1.11B39,2013-03-31 05:06:00,
2013-03-31 01:11:00,32.2,25.8,30.13,SSW,199,0.0,0.0,77,0.00,,,0.00,WeatherCatV1.11B39,2013-03-31 05:11:00,
2013-03-31 01:16:00,32.5,25.5,30.14,SSW,198,0.0,0.0,75,0.00,,,0.00,WeatherCatV1.11B39,2013-03-31 05:16:00,
2013-03-31 01:21:00,32.5,25.5,30.14,SSW,198,0.0,0.0,75,0.00,,,0.00,WeatherCatV1.11B39,2013-03-31 05:21:00,
2013-03-31 01:26:00,32.2,25.2,30.14,SSW,198,0.0,0.0,75,0.00,,,0.00,WeatherCatV1.11B39,2013-03-31 05:26:00,
2013-03-31 01:31:00,31.8,24.8,30.14,SSW,198,0.0,0.0,75,0.00,,,0.00,WeatherCatV1.11B39,2013-03-31 05:31:00,
2013-03-31 01:36:00,31.5,24.8,30.14,SSW,198,0.0,0.0,76,0.00,,,0.00,WeatherCatV1.11B39,2013-03-31 05:36:00,
2013-03-31 01:41:00,31.2,24.8,30.14,SSW,198,0.0,0.0,77,0.00,,,0.00,WeatherCatV1.11B39,2013-03-31 05:41:00,
2013-03-31 01:46:00,30.9,24.9,30.14,SSW,198,0.0,0.0,78,0.00,,,0.00,WeatherCatV1.11B39,2013-03-31 05:46:00,
2013-03-31 01:51:00,30.7,24.7,30.13,SSW,198,0.0,0.0,78,0.00,,,0.00,WeatherCatV1.11B39,2013-03-31 05:51:00,
2013-03-31 01:56:00,30.5,24.5,30.13,SSW,198,0.0,0.0,78,0.00,,,0.00,WeatherCatV1.11B39,2013-03-31 05:56:00,
2013-03-31 02:01:00,30.2,24.2,30.13,SSW,198,0.0,0.0,78,0.00,,,0.00,WeatherCatV1.11B39,2013-03-31 06:01:00,
2013-03-31 02:06:00,30.2,24.8,30.13,SSW,198,0.0,0.0,80,0.00,,,0.00,WeatherCatV1.11B39,2013-03-31 06:06:00,
2013-03-31 02:11:00,30.2,24.8,30.13,SSW,198,0.0,0.0,80,0.00,,,0.00,WeatherCatV1.11B39,2013-03-31 06:11:00,
2013-03-31 02:16:00,30.1,24.4,30.13,SSW,198,0.0,0.0,79,0.00,,,0.00,WeatherCatV1.11B39,2013-03-31 06:16:00,
2013-03-31 02:21:00,29.9,24.2,30.13,SSW,198,0.0,0.0,79,0.00,,,0.00,WeatherCatV1.11B39,2013-03-31 06:21:00,
2013-03-31 02:26:00,29.7,24.0,30.13,SSW,199,0.0,0.0,79,0.00,,,0.00,WeatherCatV1.11B39,2013-03-31 06:26:00,
2013-03-31 02:31:00,29.7,24.3,30.13,SSW,198,0.0,0.0,80,0.00,,,0.00,WeatherCatV1.11B39,2013-03-31 06:31:00,
2013-03-31 02:36:00,29.7,24.3,30.12,SSW,198,0.0,0.0,80,0.00,,,0.00,WeatherCatV1.11B39,2013-03-31 06:36:00,
2013-03-31 02:41:00,29.8,24.4,30.12,SSW,198,0.0,0.0,80,0.00,,,0.00,WeatherCatV1.11B39,2013-03-31 06:41:00,
2013-03-31 02:46:00,29.8,24.4,30.12,SSW,198,0.0,0.0,80,0.00,,,0.00,WeatherCatV1.11B39,2013-03-31 06:46:00,
2013-03-31 02:51:00,29.7,24.3,30.12,SSW,198,0.0,0.0,80,0.00,,,0.00,WeatherCatV1.11B39,2013-03-31 06:51:00,
2013-03-31 02:56:00,29.4,24.3,30.12,SSW,198,0.0,0.0,81,0.00,,,0.00,WeatherCatV1.11B39,2013-03-31 06:56:00,
2013-03-31 03:01:00,29.5,24.4,30.12,SSW,199,0.0,0.0,81,0.00,,,0.00,WeatherCatV1.11B39,2013-03-31 07:01:00,
2013-03-31 03:06:00,29.6,24.5,30.12,SSW,198,0.0,0.0,81,0.00,,,0.00,WeatherCatV1.11B39,2013-03-31 07:06:00,
2013-03-31 03:11:00,29.7,24.0,30.12,SSW,199,0.0,0.0,79,0.00,,,0.00,WeatherCatV1.11B39,2013-03-31 07:11:00,
2013-03-31 03:16:00,29.6,23.6,30.12,SSW,198,0.0,0.0,78,0.00,,,0.00,WeatherCatV1.11B39,2013-03-31 07:16:00,
2013-03-31 03:21:00,30.0,23.4,30.12,SSW,199,0.0,0.0,76,0.00,,,0.00,WeatherCatV1.11B39,2013-03-31 07:21:00,
2013-03-31 03:26:00,30.2,24.2,30.12,SSW,199,0.0,0.0,78,0.00,,,0.00,WeatherCatV1.11B39,2013-03-31 07:26:00,
2013-03-31 03:31:00,30.1,23.8,30.12,SSW,198,0.0,0.0,77,0.00,,,0.00,WeatherCatV1.11B39,2013-03-31 07:31:00,
2013-03-31 03:36:00,29.9,23.6,30.12,SSW,198,0.0,0.0,77,0.00,,,0.00,WeatherCatV1.11B39,2013-03-31 07:36:00,
2013-03-31 03:41:00,29.7,23.7,30.12,SSW,198,0.0,0.0,78,0.00,,,0.00,WeatherCatV1.11B39,2013-03-31 07:41:00,
2013-03-31 03:46:00,29.6,23.9,30.12,SSW,198,0.0,0.0,79,0.00,,,0.00,WeatherCatV1.11B39,2013-03-31 07:46:00,
2013-03-31 03:51:00,29.8,24.1,30.12,SSW,198,0.0,0.0,79,0.00,,,0.00,WeatherCatV1.11B39,2013-03-31 07:51:00,
2013-03-31 03:56:00,29.8,23.8,30.12,SSW,198,0.0,0.0,78,0.00,,,0.00,WeatherCatV1.11B39,2013-03-31 07:56:00,
2013-03-31 04:01:00,29.8,24.1,30.12,SSW,199,0.0,0.0,79,0.00,,,0.00,WeatherCatV1.11B39,2013-03-31 08:01:00,
2013-03-31 04:06:00,29.6,23.6,30.12,SSW,198,0.0,0.0,78,0.00,,,0.00,WeatherCatV1.11B39,2013-03-31 08:06:00,
2013-03-31 04:11:00,29.3,23.3,30.12,SSW,198,0.0,0.0,78,0.00,,,0.00,WeatherCatV1.11B39,2013-03-31 08:11:00,
2013-03-31 04:16:00,28.9,23.2,30.12,SSW,198,0.0,0.0,79,0.00,,,0.00,WeatherCatV1.11B39,2013-03-31 08:16:00,
2013-03-31 04:21:00,28.9,23.8,30.13,SSW,199,0.0,0.0,81,0.00,,,0.00,WeatherCatV1.11B39,2013-03-31 08:21:00,
2013-03-31 04:26:00,29.2,23.8,30.12,SSW,199,0.0,0.0,80,0.00,,,0.00,WeatherCatV1.11B39,2013-03-31 08:26:00,
2013-03-31 04:31:00,29.1,23.7,30.12,SSW,198,0.0,0.0,80,0.00,,,0.00,WeatherCatV1.11B39,2013-03-31 08:31:00,
2013-03-31 04:36:00,29.0,23.9,30.13,SSW,198,0.0,0.0,81,0.00,,,0.00,WeatherCatV1.11B39,2013-03-31 08:36:00,
2013-03-31 04:41:00,28.9,23.5,30.13,SSW,198,0.0,0.0,80,0.00,,,0.00,WeatherCatV1.11B39,2013-03-31 08:41:00,
2013-03-31 04:46:00,28.6,23.2,30.13,SSW,198,0.0,0.0,80,0.00,,,0.00,WeatherCatV1.11B39,2013-03-31 08:46:00,
2013-03-31 04:51:00,28.4,23.3,30.13,SSW,199,0.0,0.0,81,0.00,,,0.00,WeatherCatV1.11B39,2013-03-31 08:51:00,
2013-03-31 04:56:00,28.3,23.2,30.13,SSW,198,0.0,0.0,81,0.00,,,0.00,WeatherCatV1.11B39,2013-03-31 08:56:00,
2013-03-31 05:01:00,28.4,23.9,30.13,SSW,199,0.0,0.0,83,0.00,,,0.00,WeatherCatV1.11B39,2013-03-31 09:01:00,
2013-03-31 05:06:00,28.4,23.6,30.13,SSW,198,0.0,0.0,82,0.00,,,0.00,WeatherCatV1.11B39,2013-03-31 09:06:00,
2013-03-31 05:11:00,28.3,23.5,30.14,SSW,199,0.0,0.0,82,0.00,,,0.00,WeatherCatV1.11B39,2013-03-31 09:11:00,
2013-03-31 05:16:00,28.2,23.7,30.14,SSW,198,0.0,0.0,83,0.00,,,0.00,WeatherCatV1.11B39,2013-03-31 09:16:00,
2013-03-31 05:21:00,28.1,23.9,30.14,SSW,199,0.0,0.0,84,0.00,,,0.00,WeatherCatV1.11B39,2013-03-31 09:21:00,
2013-03-31 05:26:00,28.1,23.9,30.14,SSW,199,0.0,0.0,84,0.00,,,0.00,WeatherCatV1.11B39,2013-03-31 09:26:00,
2013-03-31 05:31:00,28.0,23.8,30.14,SSW,198,0.0,0.0,84,0.00,,,0.00,WeatherCatV1.11B39,2013-03-31 09:31:00,
2013-03-31 05:36:00,28.1,23.9,30.14,SSW,199,0.0,0.0,84,0.00,,,0.00,WeatherCatV1.11B39,2013-03-31 09:36:00,
2013-03-31 05:41:00,28.4,24.2,30.14,SSW,199,0.0,0.0,84,0.00,,,0.00,WeatherCatV1.11B39,2013-03-31 09:41:00,
2013-03-31 05:46:00,28.5,24.3,30.14,SSW,198,0.0,0.0,84,0.00,,,0.00,WeatherCatV1.11B39,2013-03-31 09:46:00,
2013-03-31 05:51:00,28.5,24.3,30.14,SSW,198,0.0,0.0,84,0.00,,,0.00,WeatherCatV1.11B39,2013-03-31 09:51:00,
2013-03-31 05:56:00,28.4,23.9,30.13,SSW,198,0.0,0.0,83,0.00,,,0.00,WeatherCatV1.11B39,2013-03-31 09:56:00,
2013-03-31 06:01:00,28.1,23.6,30.13,SSW,198,0.0,0.0,83,0.00,,,0.00,WeatherCatV1.11B39,2013-03-31 10:01:00,
2013-03-31 06:06:00,27.7,23.2,30.13,SSW,198,0.0,0.0,83,0.00,,,0.00,WeatherCatV1.11B39,2013-03-31 10:06:00,
2013-03-31 06:11:00,27.3,23.1,30.13,SSW,198,0.0,0.0,84,0.00,,,0.00,WeatherCatV1.11B39,2013-03-31 10:11:00,
2013-03-31 06:16:00,27.0,22.8,30.13,SSW,199,0.0,0.0,84,0.00,,,0.00,WeatherCatV1.11B39,2013-03-31 10:16:00,
2013-03-31 06:21:00,26.8,22.9,30.13,SSW,198,0.0,0.0,85,0.00,,,0.00,WeatherCatV1.11B39,2013-03-31 10:21:00,
2013-03-31 06:26:00,26.8,23.5,30.13,SSW,198,0.0,0.0,87,0.00,,,0.00,WeatherCatV1.11B39,2013-03-31 10:26:00,
2013-03-31 06:31:00,27.2,24.1,30.13,SSW,199,0.0,0.0,88,0.00,,,0.00,WeatherCatV1.11B39,2013-03-31 10:31:00,
2013-03-31 06:36:00,27.3,24.0,30.13,SSW,198,0.0,0.0,87,0.00,,,0.00,WeatherCatV1.11B39,2013-03-31 10:36:00,
2013-03-31 06:41:00,27.3,23.7,30.13,SSW,198,0.0,0.0,86,0.00,,,0.00,WeatherCatV1.11B39,2013-03-31 10:41:00,
2013-03-31 06:46:00,27.2,23.9,30.14,SSW,198,0.0,0.0,87,0.00,,,0.00,WeatherCatV1.11B39,2013-03-31 10:46:00,
2013-03-31 06:51:00,27.3,23.7,30.14,SSW,198,0.0,0.0,86,0.00,,,0.00,WeatherCatV1.11B39,2013-03-31 10:51:00,
2013-03-31 06:56:00,27.3,24.0,30.14,SSW,198,0.0,0.0,87,0.00,,,0.00,WeatherCatV1.11B39,2013-03-31 10:56:00,
2013-03-31 07:01:00,27.5,24.1,30.14,SSW,198,0.0,0.0,87,0.00,,,0.00,WeatherCatV1.11B39,2013-03-31 11:01:00,
2013-03-31 07:06:00,27.9,24.5,30.14,SSW,199,0.0,0.0,87,0.00,,,0.00,WeatherCatV1.11B39,2013-03-31 11:06:00,
2013-03-31 07:11:00,28.2,24.8,30.14,SSW,198,0.0,0.0,87,0.00,,,0.00,WeatherCatV1.11B39,2013-03-31 11:11:00,
2013-03-31 07:16:00,28.6,25.0,30.14,SSW,198,0.0,0.0,86,0.00,,,0.00,WeatherCatV1.11B39,2013-03-31 11:16:00,
2013-03-31 07:21:00,29.0,25.3,30.15,SSW,198,0.0,0.0,86,0.00,,,0.00,WeatherCatV1.11B39,2013-03-31 11:21:00,
2013-03-31 07:26:00,29.4,25.7,30.15,SSW,198,0.0,0.0,86,0.00,,,0.00,WeatherCatV1.11B39,2013-03-31 11:26:00,
2013-03-31 07:31:00,29.8,25.9,30.15,SSW,199,0.0,0.0,85,0.00,,,0.00,WeatherCatV1.11B39,2013-03-31 11:31:00,
2013-03-31 07:36:00,30.4,26.2,30.15,SSW,199,0.0,0.0,84,0.00,,,0.00,WeatherCatV1.11B39,2013-03-31 11:36:00,
2013-03-31 07:41:00,31.0,26.5,30.15,SSW,198,0.0,0.0,83,0.00,,,0.00,WeatherCatV1.11B39,2013-03-31 11:41:00,
2013-03-31 07:46:00,31.5,26.7,30.15,SSW,198,0.0,0.0,82,0.00,,,0.00,WeatherCatV1.11B39,2013-03-31 11:46:00,
2013-03-31 07:51:00,32.0,26.8,30.15,SSW,198,0.0,0.0,81,0.00,,,0.00,WeatherCatV1.11B39,2013-03-31 11:51:00,
2013-03-31 07:56:00,32.7,27.2,30.14,SSW,198,0.0,0.0,80,0.00,,,0.00,WeatherCatV1.11B39,2013-03-31 11:56:00,
2013-03-31 08:01:00,33.7,27.0,30.14,SSW,199,0.0,0.0,76,0.00,,,0.00,WeatherCatV1.11B39,2013-03-31 12:01:00,
2013-03-31 08:06:00,35.0,26.6,30.14,SSW,199,0.0,0.0,71,0.00,,,0.00,WeatherCatV1.11B39,2013-03-31 12:06:00,
2013-03-31 08:11:00,35.9,27.1,30.14,SSW,198,0.0,0.0,70,0.00,,,0.00,WeatherCatV1.11B39,2013-03-31 12:11:00,
2013-03-31 08:16:00,36.8,26.9,30.14,SSW,199,0.0,0.0,67,0.00,,,0.00,WeatherCatV1.11B39,2013-03-31 12:16:00,
2013-03-31 08:21:00,37.7,26.3,30.13,SSW,199,0.0,0.0,63,0.00,,,0.00,WeatherCatV1.11B39,2013-03-31 12:21:00,
2013-03-31 08:26:00,38.7,26.0,30.13,SSW,198,0.0,0.0,60,0.00,,,0.00,WeatherCatV1.11B39,2013-03-31 12:26:00,
2013-03-31 08:31:00,39.7,26.1,30.13,SSW,198,0.0,0.0,58,0.00,,,0.00,WeatherCatV1.11B39,2013-03-31 12:31:00,
2013-03-31 08:36:00,40.6,25.3,30.13,SSW,198,0.0,0.0,54,0.00,,,0.00,WeatherCatV1.11B39,2013-03-31 12:36:00,
2013-03-31 08:41:00,41.5,25.7,30.12,SSW,199,0.0,0.0,53,0.00,,,0.00,WeatherCatV1.11B39,2013-03-31 12:41:00,
2013-03-31 08:46:00,42.2,24.4,30.13,SSE,160,1.0,2.0,49,0.00,,,0.00,WeatherCatV1.11B39,2013-03-31 12:46:00,
2013-03-31 08:51:00,42.7,24.9,30.12,SSE,155,0.0,0.0,49,0.00,,,0.00,WeatherCatV1.11B39,2013-03-31 12:51:00,
2013-03-31 08:56:00,43.3,22.9,30.12,SSE,158,2.0,2.0,44,0.00,,,0.00,WeatherCatV1.11B39,2013-03-31 12:56:00,
2013-03-31 09:01:00,43.5,24.1,30.12,South,174,0.0,1.0,46,0.00,,,0.00,WeatherCatV1.11B39,2013-03-31 13:01:00,
2013-03-31 09:06:00,44.1,25.2,30.12,SSE,148,0.0,0.0,47,0.00,,,0.00,WeatherCatV1.11B39,2013-03-31 13:06:00,
2013-03-31 09:11:00,44.8,25.3,30.12,SSE,152,1.0,1.0,46,0.00,,,0.00,WeatherCatV1.11B39,2013-03-31 13:11:00,
2013-03-31 09:16:00,45.4,25.8,30.12,SSW,201,0.0,0.0,46,0.00,,,0.00,WeatherCatV1.11B39,2013-03-31 13:16:00,
2013-03-31 09:21:00,46.0,26.4,30.12,SW,220,0.0,1.0,46,0.00,,,0.00,WeatherCatV1.11B39,2013-03-31 13:21:00,
2013-03-31 09:26:00,46.5,26.8,30.12,East,100,0.0,1.0,46,0.00,,,0.00,WeatherCatV1.11B39,2013-03-31 13:26:00,
2013-03-31 09:31:00,47.2,25.9,30.12,SSE,155,1.0,1.0,43,0.00,,,0.00,WeatherCatV1.11B39,2013-03-31 13:31:00,
2013-03-31 09:36:00,47.6,26.8,30.12,North,6,0.0,1.0,44,0.00,,,0.00,WeatherCatV1.11B39,2013-03-31 13:36:00,
2013-03-31 09:41:00,48.2,26.8,30.12,SSW,200,0.0,0.0,43,0.00,,,0.00,WeatherCatV1.11B39,2013-03-31 13:41:00,
2013-03-31 09:46:00,48.9,26.8,30.12,SSW,204,0.0,1.0,42,0.00,,,0.00,WeatherCatV1.11B39,2013-03-31 13:46:00,
2013-03-31 09:51:00,49.4,27.3,30.12,SE,143,0.0,2.0,42,0.00,,,0.00,WeatherCatV1.11B39,2013-03-31 13:51:00,
2013-03-31 09:56:00,49.9,25.9,30.12,SE,135,0.0,1.0,39,0.00,,,0.00,WeatherCatV1.11B39,2013-03-31 13:56:00,
2013-03-31 10:01:00,50.4,25.8,30.12,SSE,157,0.0,2.0,38,0.00,,,0.00,WeatherCatV1.11B39,2013-03-31 14:01:00,
2013-03-31 10:06:00,51.1,24.4,30.11,West,259,2.0,4.0,35,0.00,,,0.00,WeatherCatV1.11B39,2013-03-31 14:06:00,
2013-03-31 10:11:00,51.0,24.3,30.11,SW,231,3.0,3.0,35,0.00,,,0.00,WeatherCatV1.11B39,2013-03-31 14:11:00,
2013-03-31 10:16:00,51.2,24.5,30.11,South,190,0.0,3.0,35,0.00,,,0.00,WeatherCatV1.11B39,2013-03-31 14:16:00,
2013-03-31 10:21:00,52.1,24.6,30.11,South,169,2.0,5.0,34,0.00,,,0.00,WeatherCatV1.11B39,2013-03-31 14:21:00,
2013-03-31 10:26:00,52.6,24.3,30.11,SW,228,1.0,2.0,33,0.00,,,0.00,WeatherCatV1.11B39,2013-03-31 14:26:00,
2013-03-31 10:31:00,53.0,24.7,30.11,SW,216,1.0,3.0,33,0.00,,,0.00,WeatherCatV1.11B39,2013-03-31 14:31:00,
2013-03-31 10:36:00,53.4,23.5,30.11,WSW,243,0.0,3.0,31,0.00,,,0.00,WeatherCatV1.11B39,2013-03-31 14:36:00,
2013-03-31 10:41:00,54.0,25.6,30.11,SSE,155,0.0,2.0,33,0.00,,,0.00,WeatherCatV1.11B39,2013-03-31 14:41:00,
2013-03-31 10:46:00,54.8,25.5,30.11,SSE,150,1.0,2.0,32,0.00,,,0.00,WeatherCatV1.11B39,2013-03-31 14:46:00,
2013-03-31 10:51:00,55.4,25.3,30.10,SW,231,0.0,2.0,31,0.00,,,0.00,WeatherCatV1.11B39,2013-03-31 14:51:00,
2013-03-31 10:56:00,55.7,24.8,30.10,SSW,203,0.0,2.0,30,0.00,,,0.00,WeatherCatV1.11B39,2013-03-31 14:56:00,
2013-03-31 11:01:00,56.1,23.5,30.10,SW,235,1.0,3.0,28,0.00,,,0.00,WeatherCatV1.11B39,2013-03-31 15:01:00,
2013-03-31 11:06:00,55.8,24.0,30.10,South,188,0.0,3.0,29,0.00,,,0.00,WeatherCatV1.11B39,2013-03-31 15:06:00,
2013-03-31 11:11:00,56.2,24.4,30.10,ESE,122,1.0,3.0,29,0.00,,,0.00,WeatherCatV1.11B39,2013-03-31 15:11:00,
2013-03-31 11:16:00,56.8,24.1,30.10,SW,235,1.0,5.0,28,0.00,,,0.00,WeatherCatV1.11B39,2013-03-31 15:16:00,
2013-03-31 11:21:00,56.8,24.9,30.10,SW,215,2.0,2.0,29,0.00,,,0.00,WeatherCatV1.11B39,2013-03-31 15:21:00,
2013-03-31 11:26:00,57.0,24.2,30.10,West,260,0.0,6.0,28,0.00,,,0.00,WeatherCatV1.11B39,2013-03-31 15:26:00,
2013-03-31 11:31:00,57.5,25.5,30.09,North,11,1.0,4.0,29,0.00,,,0.00,WeatherCatV1.11B39,2013-03-31 15:31:00,
2013-03-31 11:36:00,58.1,25.2,30.09,SW,216,3.0,3.0,28,0.00,,,0.00,WeatherCatV1.11B39,2013-03-31 15:36:00,
2013-03-31 11:41:00,58.3,25.3,30.09,East,86,1.0,4.0,28,0.00,,,0.00,WeatherCatV1.11B39,2013-03-31 15:41:00,
2013-03-31 11:46:00,58.4,24.6,30.09,SSW,200,1.0,3.0,27,0.00,,,0.00,WeatherCatV1.11B39,2013-03-31 15:46:00,
2013-03-31 11:51:00,58.8,25.8,30.08,WSW,250,0.0,3.0,28,0.00,,,0.00,WeatherCatV1.11B39,2013-03-31 15:51:00,
2013-03-31 11:56:00,58.8,23.1,30.08,SE,146,1.0,6.0,25,0.00,,,0.00,WeatherCatV1.11B39,2013-03-31 15:56:00,
2013-03-31 12:01:00,59.4,25.4,30.08,South,188,3.0,3.0,27,0.00,,,0.00,WeatherCatV1.11B39,2013-03-31 16:01:00,
2013-03-31 12:06:00,59.3,24.4,30.08,SSE,162,1.0,1.0,26,0.00,,,0.00,WeatherCatV1.11B39,2013-03-31 16:06:00,
2013-03-31 12:11:00,59.6,24.7,30.07,NNE,22,1.0,3.0,26,0.00,,,0.00,WeatherCatV1.11B39,2013-03-31 16:11:00,
2013-03-31 12:16:00,60.2,24.3,30.07,WSW,239,4.0,5.0,25,0.00,,,0.00,WeatherCatV1.11B39,2013-03-31 16:16:00,
2013-03-31 12:21:00,60.5,24.5,30.07,NW,304,1.0,3.0,25,0.00,,,0.00,WeatherCatV1.11B39,2013-03-31 16:21:00,
2013-03-31 12:26:00,60.4,23.4,30.07,SW,214,1.0,3.0,24,0.00,,,0.00,WeatherCatV1.11B39,2013-03-31 16:26:00,
2013-03-31 12:31:00,60.2,24.3,30.06,WSW,239,2.0,4.0,25,0.00,,,0.00,WeatherCatV1.11B39,2013-03-31 16:31:00,
2013-03-31 12:36:00,60.9,25.8,30.06,SSE,163,0.0,4.0,26,0.00,,,0.00,WeatherCatV1.11B39,2013-03-31 16:36:00,
2013-03-31 12:41:00,61.3,24.2,30.06,West,259,3.0,5.0,24,0.00,,,0.00,WeatherCatV1.11B39,2013-03-31 16:41:00,
2013-03-31 12:46:00,61.4,24.3,30.06,SE,146,1.0,3.0,24,0.00,,,0.00,WeatherCatV1.11B39,2013-03-31 16:46:00,
2013-03-31 12:51:00,61.3,23.2,30.06,NNE,13,5.0,6.0,23,0.00,,,0.00,WeatherCatV1.11B39,2013-03-31 16:51:00,
2013-03-31 12:56:00,61.1,22.0,30.05,SSW,197,5.0,8.0,22,0.00,,,0.00,WeatherCatV1.11B39,2013-03-31 16:56:00,
2013-03-31 13:01:00,61.0,21.9,30.05,SW,222,8.0,8.0,22,0.00,,,0.00,WeatherCatV1.11B39,2013-03-31 17:01:00,
2013-03-31 13:06:00,60.9,22.9,30.05,South,184,5.0,5.0,23,0.00,,,0.00,WeatherCatV1.11B39,2013-03-31 17:06:00,
2013-03-31 13:11:00,61.4,23.3,30.05,South,189,2.0,9.0,23,0.00,,,0.00,WeatherCatV1.11B39,2013-03-31 17:11:00,
2013-03-31 13:16:00,61.3,23.2,30.04,WSW,252,2.0,3.0,23,0.00,,,0.00,WeatherCatV1.11B39,2013-03-31 17:16:00,
2013-03-31 13:21:00,61.2,23.1,30.04,ESE,103,2.0,3.0,23,0.00,,,0.00,WeatherCatV1.11B39,2013-03-31 17:21:00,
2013-03-31 13:26:00,61.4,23.3,30.04,WSW,245,2.0,6.0,23,0.00,,,0.00,WeatherCatV1.11B39,2013-03-31 17:26:00,
2013-03-31 13:31:00,61.2,23.1,30.03,SSW,196,3.0,4.0,23,0.00,,,0.00,WeatherCatV1.11B39,2013-03-31 17:31:00,
2013-03-31 13:37:00,61.1,23.0,30.03,South,191,2.0,2.0,23,0.00,,,0.00,WeatherCatV1.11B39,2013-03-31 17:37:00,
2013-03-31 13:42:00,61.2,24.1,30.03,South,177,2.0,5.0,24,0.00,,,0.00,WeatherCatV1.11B39,2013-03-31 17:42:00,
2013-03-31 13:47:00,61.2,25.1,30.02,SSE,158,2.0,6.0,25,0.00,,,0.00,WeatherCatV1.11B39,2013-03-31 17:47:00,
2013-03-31 13:52:00,61.4,25.3,30.02,SW,219,1.0,4.0,25,0.00,,,0.00,WeatherCatV1.11B39,2013-03-31 17:52:00,
2013-03-31 13:57:00,61.4,24.3,30.02,SSE,167,2.0,6.0,24,0.00,,,0.00,WeatherCatV1.11B39,2013-03-31 17:57:00,
2013-03-31 14:02:00,60.9,23.9,30.02,SSW,200,2.0,7.0,24,0.00,,,0.00,WeatherCatV1.11B39,2013-03-31 18:02:00,
2013-03-31 14:07:00,60.6,23.6,30.02,SSE,152,4.0,8.0,24,0.00,,,0.00,WeatherCatV1.11B39,2013-03-31 18:07:00,
2013-03-31 14:12:00,60.4,24.4,30.01,South,180,2.0,6.0,25,0.00,,,0.00,WeatherCatV1.11B39,2013-03-31 18:12:00,
2013-03-31 14:17:00,60.3,24.3,30.01,SSW,198,4.0,4.0,25,0.00,,,0.00,WeatherCatV1.11B39,2013-03-31 18:17:00,
2013-03-31 14:22:00,60.4,24.4,30.01,WSW,248,3.0,5.0,25,0.00,,,0.00,WeatherCatV1.11B39,2013-03-31 18:22:00,
2013-03-31 14:27:00,60.4,24.4,30.01,SSW,193,3.0,4.0,25,0.00,,,0.00,WeatherCatV1.11B39,2013-03-31 18:27:00,
2013-03-31 14:32:00,60.5,24.5,30.00,SSW,194,1.0,6.0,25,0.00,,,0.00,WeatherCatV1.11B39,2013-03-31 18:32:00,
2013-03-31 14:37:00,60.3,25.3,30.00,South,169,0.0,4.0,26,0.00,,,0.00,WeatherCatV1.11B39,2013-03-31 18:37:00,
2013-03-31 14:42:00,60.5,26.4,30.00,SSE,158,2.0,4.0,27,0.00,,,0.00,WeatherCatV1.11B39,2013-03-31 18:42:00,
2013-03-31 14:47:00,60.5,25.4,30.00,SSW,211,4.0,9.0,26,0.00,,,0.00,WeatherCatV1.11B39,2013-03-31 18:47:00,
2013-03-31 14:52:00,60.5,25.4,30.00,SSE,148,1.0,4.0,26,0.00,,,0.00,WeatherCatV1.11B39,2013-03-31 18:52:00,
2013-03-31 14:57:00,60.8,25.7,29.99,SW,229,0.0,5.0,26,0.00,,,0.00,WeatherCatV1.11B39,2013-03-31 18:57:00,
2013-03-31 15:02:00,60.5,26.4,30.00,South,169,2.0,6.0,27,0.00,,,0.00,WeatherCatV1.11B39,2013-03-31 19:02:00,
2013-03-31 15:07:00,60.6,26.4,29.99,WSW,253,1.0,7.0,27,0.00,,,0.00,WeatherCatV1.11B39,2013-03-31 19:07:00,
2013-03-31 15:12:00,60.5,25.4,29.99,SE,138,1.0,9.0,26,0.00,,,0.00,WeatherCatV1.11B39,2013-03-31 19:12:00,
2013-03-31 15:17:00,60.6,25.5,29.99,South,188,3.0,11.0,26,0.00,,,0.00,WeatherCatV1.11B39,2013-03-31 19:17:00,
2013-03-31 15:22:00,60.2,24.3,29.99,SSE,162,1.0,8.0,25,0.00,,,0.00,WeatherCatV1.11B39,2013-03-31 19:22:00,
2013-03-31 15:27:00,60.3,24.3,29.98,SW,226,2.0,8.0,25,0.00,,,0.00,WeatherCatV1.11B39,2013-03-31 19:27:00,
2013-03-31 15:32:00,60.1,25.1,29.99,South,179,3.0,8.0,26,0.00,,,0.00,WeatherCatV1.11B39,2013-03-31 19:32:00,
2013-03-31 15:37:00,59.8,24.9,29.98,WSW,250,4.0,6.0,26,0.00,,,0.00,WeatherCatV1.11B39,2013-03-31 19:37:00,
2013-03-31 15:42:00,59.5,24.6,29.98,WSW,257,10.0,10.0,26,0.00,,,0.00,WeatherCatV1.11B39,2013-03-31 19:42:00,
2013-03-31 15:47:00,59.3,24.4,29.98,North,356,3.0,3.0,26,0.00,,,0.00,WeatherCatV1.11B39,2013-03-31 19:47:00,
2013-03-31 15:52:00,59.3,25.3,29.98,WSW,246,8.0,9.0,27,0.00,,,0.00,WeatherCatV1.11B39,2013-03-31 19:52:00,
2013-03-31 15:57:00,58.8,24.0,29.98,SSE,165,2.0,7.0,26,0.00,,,0.00,WeatherCatV1.11B39,2013-03-31 19:57:00,
2013-03-31 16:02:00,58.6,23.8,29.98,SSE,158,1.0,6.0,26,0.00,,,0.00,WeatherCatV1.11B39,2013-03-31 20:02:00,
2013-03-31 16:07:00,58.7,24.8,29.98,NW,325,2.0,7.0,27,0.00,,,0.00,WeatherCatV1.11B39,2013-03-31 20:07:00,
2013-03-31 16:12:00,58.4,23.7,29.98,WSW,238,3.0,4.0,26,0.00,,,0.00,WeatherCatV1.11B39,2013-03-31 20:12:00,
2013-03-31 16:17:00,58.2,24.4,29.98,SSE,159,0.0,4.0,27,0.00,,,0.00,WeatherCatV1.11B39,2013-03-31 20:17:00,
2013-03-31 16:22:00,58.4,23.7,29.98,SSW,193,1.0,8.0,26,0.00,,,0.00,WeatherCatV1.11B39,2013-03-31 20:22:00,
2013-03-31 16:27:00,58.0,25.1,29.98,SSW,193,2.0,6.0,28,0.00,,,0.00,WeatherCatV1.11B39,2013-03-31 20:27:00,
2013-03-31 16:32:00,57.6,23.9,29.98,North,355,2.0,7.0,27,0.00,,,0.00,WeatherCatV1.11B39,2013-03-31 20:32:00,
2013-03-31 16:37:00,57.4,23.7,29.98,SSE,165,4.0,6.0,27,0.00,,,0.00,WeatherCatV1.11B39,2013-03-31 20:37:00,
2013-03-31 16:42:00,57.2,23.5,29.98,SSE,163,3.0,9.0,27,0.00,,,0.00,WeatherCatV1.11B39,2013-03-31 20:42:00,
2013-03-31 16:47:00,57.0,24.2,29.97,SSW,192,3.0,11.0,28,0.00,,,0.00,WeatherCatV1.11B39,2013-03-31 20:47:00,
2013-03-31 16:52:00,56.8,24.9,29.97,NNE,27,2.0,8.0,29,0.00,,,0.00,WeatherCatV1.11B39,2013-03-31 20:52:00,
2013-03-31 16:57:00,56.8,23.2,29.97,NW,323,3.0,8.0,27,0.00,,,0.00,WeatherCatV1.11B39,2013-03-31 20:57:00,
2013-03-31 17:02:00,56.9,23.3,29.97,SSW,195,4.0,7.0,27,0.00,,,0.00,WeatherCatV1.11B39,2013-03-31 21:02:00,
2013-03-31 17:07:00,57.4,23.7,29.97,SW,214,4.0,4.0,27,0.00,,,0.00,WeatherCatV1.11B39,2013-03-31 21:07:00,
2013-03-31 17:12:00,57.7,24.8,29.97,South,169,3.0,5.0,28,0.00,,,0.00,WeatherCatV1.11B39,2013-03-31 21:12:00,
2013-03-31 17:17:00,57.4,23.7,29.97,SSW,197,2.0,8.0,27,0.00,,,0.00,WeatherCatV1.11B39,2013-03-31 21:17:00,
2013-03-31 17:22:00,57.1,24.3,29.97,WSW,238,1.0,4.0,28,0.00,,,0.00,WeatherCatV1.11B39,2013-03-31 21:22:00,
2013-03-31 17:27:00,56.5,24.6,29.97,SSE,157,4.0,10.0,29,0.00,,,0.00,WeatherCatV1.11B39,2013-03-31 21:27:00,
2013-03-31 17:32:00,56.1,25.1,29.97,SSW,205,5.0,10.0,30,0.00,,,0.00,WeatherCatV1.11B39,2013-03-31 21:32:00,
2013-03-31 17:37:00,55.5,25.4,29.97,SW,229,2.0,10.0,31,0.00,,,0.00,WeatherCatV1.11B39,2013-03-31 21:37:00,
2013-03-31 17:42:00,55.2,26.6,29.97,SW,221,2.0,4.0,33,0.00,,,0.00,WeatherCatV1.11B39,2013-03-31 21:42:00,
2013-03-31 17:47:00,55.1,27.2,29.97,SSW,206,2.0,9.0,34,0.00,,,0.00,WeatherCatV1.11B39,2013-03-31 21:47:00,
2013-03-31 17:52:00,54.8,29.0,29.97,SW,231,3.0,9.0,37,0.00,,,0.00,WeatherCatV1.11B39,2013-03-31 21:52:00,
2013-03-31 17:57:00,54.6,29.5,29.97,SW,214,4.0,10.0,38,0.00,,,0.00,WeatherCatV1.11B39,2013-03-31 21:57:00,
2013-03-31 18:02:00,54.3,30.5,29.97,SSW,208,2.0,7.0,40,0.00,,,0.00,WeatherCatV1.11B39,2013-03-31 22:02:00,
2013-03-31 18:07:00,54.0,31.4,29.97,West,273,2.0,7.0,42,0.00,,,0.00,WeatherCatV1.11B39,2013-03-31 22:07:00,
2013-03-31 18:12:00,53.8,31.8,29.97,WSW,242,1.0,4.0,43,0.00,,,0.00,WeatherCatV1.11B39,2013-03-31 22:12:00,
2013-03-31 18:17:00,53.6,32.2,29.97,South,169,5.0,7.0,44,0.00,,,0.00,WeatherCatV1.11B39,2013-03-31 22:17:00,
2013-03-31 18:22:00,53.4,32.6,29.97,SW,218,3.0,7.0,45,0.00,,,0.00,WeatherCatV1.11B39,2013-03-31 22:22:00,
2013-03-31 18:27:00,53.1,32.9,29.97,SSE,152,9.0,9.0,46,0.00,,,0.00,WeatherCatV1.11B39,2013-03-31 22:27:00,
2013-03-31 18:32:00,52.8,32.6,29.97,SSE,160,2.0,5.0,46,0.00,,,0.00,WeatherCatV1.11B39,2013-03-31 22:32:00,
2013-03-31 18:37:00,52.7,33.0,29.97,SSE,155,1.0,7.0,47,0.00,,,0.00,WeatherCatV1.11B39,2013-03-31 22:37:00,
2013-03-31 18:42:00,52.6,33.0,29.97,WSW,239,0.0,2.0,47,0.00,,,0.00,WeatherCatV1.11B39,2013-03-31 22:42:00,
2013-03-31 18:47:00,52.5,32.9,29.97,WSW,245,0.0,4.0,47,0.00,,,0.00,WeatherCatV1.11B39,2013-03-31 22:47:00,
2013-03-31 18:52:00,52.3,33.2,29.97,SSW,203,1.0,5.0,48,0.00,,,0.00,WeatherCatV1.11B39,2013-03-31 22:52:00,
2013-03-31 18:57:00,52.2,33.6,29.97,South,188,4.0,6.0,49,0.00,,,0.00,WeatherCatV1.11B39,2013-03-31 22:57:00,
2013-03-31 19:02:00,52.0,33.4,29.97,SW,221,2.0,3.0,49,0.00,,,0.00,WeatherCatV1.11B39,2013-03-31 23:02:00,
2013-03-31 19:07:00,51.9,33.8,29.96,West,271,3.0,9.0,50,0.00,,,0.00,WeatherCatV1.11B39,2013-03-31 23:07:00,
2013-03-31 19:12:00,51.8,34.3,29.96,SSE,160,1.0,5.0,51,0.00,,,0.00,WeatherCatV1.11B39,2013-03-31 23:12:00,
2013-03-31 19:17:00,51.7,34.2,29.96,SSW,203,2.0,4.0,51,0.00,,,0.00,WeatherCatV1.11B39,2013-03-31 23:17:00,
2013-03-31 19:22:00,51.6,34.1,29.96,SSW,198,3.0,7.0,51,0.00,,,0.00,WeatherCatV1.11B39,2013-03-31 23:22:00,
2013-03-31 19:27:00,51.5,34.5,29.96,SW,231,0.0,4.0,52,0.00,,,0.00,WeatherCatV1.11B39,2013-03-31 23:27:00,
2013-03-31 19:32:00,51.5,34.9,29.96,NW,322,1.0,7.0,53,0.00,,,0.00,WeatherCatV1.11B39,2013-03-31 23:32:00,
2013-03-31 19:37:00,51.4,34.8,29.96,SSW,204,2.0,5.0,53,0.00,,,0.00,WeatherCatV1.11B39,2013-03-31 23:37:00,
2013-03-31 19:42:00,51.3,34.8,29.96,SSW,211,1.0,5.0,53,0.00,,,0.00,WeatherCatV1.11B39,2013-03-31 23:42:00,
2013-03-31 19:47:00,51.2,34.7,29.96,SW,228,1.0,7.0,53,0.00,,,0.00,WeatherCatV1.11B39,2013-03-31 23:47:00,
2013-03-31 19:52:00,51.2,34.7,29.96,SSE,166,4.0,13.0,53,0.00,,,0.00,WeatherCatV1.11B39,2013-03-31 23:52:00,
2013-03-31 19:57:00,51.1,35.5,29.96,North,8,1.0,9.0,55,0.00,,,0.00,WeatherCatV1.11B39,2013-03-31 23:57:00,
2013-03-31 20:02:00,50.9,35.8,29.96,SSE,168,3.0,5.0,56,0.00,,,0.00,WeatherCatV1.11B39,2013-04-01 00:02:00,
2013-03-31 20:07:00,50.8,36.1,29.95,SSE,160,2.0,4.0,57,0.00,,,0.00,WeatherCatV1.11B39,2013-04-01 00:07:00,
2013-03-31 20:12:00,50.6,37.2,29.95,NNE,20,0.0,2.0,60,0.00,,,0.00,WeatherCatV1.11B39,2013-04-01 00:12:00,
2013-03-31 20:17:00,50.4,37.5,29.95,WSW,257,1.0,6.0,61,0.00,,,0.00,WeatherCatV1.11B39,2013-04-01 00:17:00,
2013-03-31 20:22:00,50.2,37.3,29.95,ENE,67,1.0,2.0,61,0.00,,,0.00,WeatherCatV1.11B39,2013-04-01 00:22:00,
2013-03-31 20:27:00,50.1,37.2,29.94,WNW,302,3.0,4.0,61,0.00,,,0.00,WeatherCatV1.11B39,2013-04-01 00:27:00,
2013-03-31 20:32:00,50.0,37.1,29.94,ENE,68,0.0,7.0,61,0.00,,,0.00,WeatherCatV1.11B39,2013-04-01 00:32:00,
2013-03-31 20:37:00,50.0,37.9,29.93,SSE,156,0.0,1.0,63,0.00,,,0.00,WeatherCatV1.11B39,2013-04-01 00:37:00,
2013-03-31 20:42:00,50.0,37.5,29.93,SSE,166,0.0,2.0,62,0.00,,,0.00,WeatherCatV1.11B39,2013-04-01 00:42:00,
2013-03-31 20:47:00,49.9,37.0,29.93,SW,235,1.0,6.0,61,0.00,,,0.00,WeatherCatV1.11B39,2013-04-01 00:47:00,
2013-03-31 20:52:00,49.9,37.0,29.93,NNE,23,0.0,1.0,61,0.00,,,0.00,WeatherCatV1.11B39,2013-04-01 00:52:00,
2013-03-31 20:57:00,49.9,36.6,29.92,South,170,1.0,5.0,60,0.00,,,0.00,WeatherCatV1.11B39,2013-04-01 00:57:00,
2013-03-31 21:02:00,49.9,37.4,29.92,SSE,160,0.0,2.0,62,0.00,,,0.00,WeatherCatV1.11B39,2013-04-01 01:02:00,
2013-03-31 21:07:00,49.8,37.3,29.92,SSE,155,3.0,5.0,62,0.00,,,0.00,WeatherCatV1.11B39,2013-04-01 01:07:00,
2013-03-31 21:12:00,49.9,36.1,29.91,SW,236,0.0,3.0,59,0.00,,,0.00,WeatherCatV1.11B39,2013-04-01 01:12:00,
2013-03-31 21:17:00,49.9,35.7,29.92,SSW,205,5.0,7.0,58,0.00,,,0.00,WeatherCatV1.11B39,2013-04-01 01:17:00,
2013-03-31 21:22:00,49.8,35.6,29.91,SSW,194,3.0,3.0,58,0.00,,,0.00,WeatherCatV1.11B39,2013-04-01 01:22:00,
2013-03-31 21:27:00,49.8,35.6,29.91,South,188,0.0,0.0,58,0.00,,,0.00,WeatherCatV1.11B39,2013-04-01 01:27:00,
2013-03-31 21:32:00,49.7,35.1,29.91,SE,139,0.0,6.0,57,0.00,,,0.00,WeatherCatV1.11B39,2013-04-01 01:32:00,
2013-03-31 21:37:00,49.6,35.0,29.90,ESE,121,1.0,5.0,57,0.00,,,0.00,WeatherCatV1.11B39,2013-04-01 01:37:00,
2013-03-31 21:42:00,49.5,35.3,29.90,SW,214,2.0,2.0,58,0.00,,,0.00,WeatherCatV1.11B39,2013-04-01 01:42:00,
2013-03-31 21:47:00,49.5,34.9,29.90,SSW,211,2.0,9.0,57,0.00,,,0.00,WeatherCatV1.11B39,2013-04-01 01:47:00,
2013-03-31 21:52:00,49.5,34.9,29.89,South,181,8.0,8.0,57,0.00,,,0.00,WeatherCatV1.11B39,2013-04-01 01:52:00,
2013-03-31 21:57:00,49.5,34.5,29.88,SSE,148,0.0,3.0,56,0.00,,,0.00,WeatherCatV1.11B39,2013-04-01 01:57:00,
2013-03-31 22:02:00,49.5,34.5,29.88,East,100,4.0,4.0,56,0.00,,,0.00,WeatherCatV1.11B39,2013-04-01 02:02:00,
2013-03-31 22:07:00,49.4,34.4,29.87,SSE,157,0.0,3.0,56,0.00,,,0.00,WeatherCatV1.11B39,2013-04-01 02:07:00,
2013-03-31 22:12:00,49.3,34.7,29.87,SSE,147,0.0,2.0,57,0.00,,,0.00,WeatherCatV1.11B39,2013-04-01 02:12:00,
2013-03-31 22:17:00,49.2,35.1,29.86,SE,129,7.0,10.0,58,0.00,,,0.00,WeatherCatV1.11B39,2013-04-01 02:17:00,
2013-03-31 22:22:00,49.2,35.1,29.85,NNW,347,1.0,6.0,58,0.00,,,0.00,WeatherCatV1.11B39,2013-04-01 02:22:00,
2013-03-31 22:27:00,49.1,35.4,29.85,NNE,15,1.0,3.0,59,0.00,,,0.00,WeatherCatV1.11B39,2013-04-01 02:27:00,
2013-03-31 22:32:00,49.0,35.3,29.85,NE,49,1.0,1.0,59,0.00,,,0.00,WeatherCatV1.11B39,2013-04-01 02:32:00,
2013-03-31 22:37:00,49.0,35.3,29.85,WNW,284,1.0,2.0,59,0.00,,,0.00,WeatherCatV1.11B39,2013-04-01 02:37:00,
2013-03-31 22:42:00,48.9,35.2,29.84,East,101,1.0,4.0,59,0.00,,,0.00,WeatherCatV1.11B39,2013-04-01 02:42:00,
2013-03-31 22:47:00,48.9,36.0,29.85,SE,143,0.0,2.0,61,0.00,,,0.00,WeatherCatV1.11B39,2013-04-01 02:47:00,
2013-03-31 22:52:00,48.8,36.8,29.84,NW,326,2.0,8.0,63,0.00,,,0.00,WeatherCatV1.11B39,2013-04-01 02:52:00,
2013-03-31 22:57:00,48.7,37.1,29.83,WSW,239,3.0,4.0,64,0.00,,,0.00,WeatherCatV1.11B39,2013-04-01 02:57:00,
2013-03-31 23:02:00,48.4,37.6,29.83,SSE,157,1.0,6.0,66,0.00,,,0.00,WeatherCatV1.11B39,2013-04-01 03:02:00,
2013-03-31 23:07:00,48.1,38.0,29.82,SSE,156,1.0,2.0,68,0.00,,,0.00,WeatherCatV1.11B39,2013-04-01 03:07:00,
2013-03-31 23:12:00,47.8,37.8,29.81,NNW,335,1.0,7.0,68,0.00,,,0.00,WeatherCatV1.11B39,2013-04-01 03:12:00,
2013-03-31 23:17:00,47.7,38.0,29.80,SSE,156,3.0,5.0,69,0.00,,,0.00,WeatherCatV1.11B39,2013-04-01 03:17:00,
2013-03-31 23:22:00,47.6,38.3,29.80,NNE,16,1.0,2.0,70,0.00,,,0.00,WeatherCatV1.11B39,2013-04-01 03:22:00,
2013-03-31 23:27:00,47.5,38.2,29.80,SSE,150,0.0,2.0,70,0.00,,,0.00,WeatherCatV1.11B39,2013-04-01 03:27:00,
2013-03-31 23:32:00,47.4,38.8,29.79,SE,139,4.0,6.0,72,0.00,,,0.00,WeatherCatV1.11B39,2013-04-01 03:32:00,
2013-03-31 23:37:00,47.3,38.7,29.79,North,0,0.0,2.0,72,0.00,,,0.00,WeatherCatV1.11B39,2013-04-01 03:37:00,
2013-03-31 23:42:00,47.3,39.4,29.78,East,98,2.0,10.0,74,0.00,,,0.00,WeatherCatV1.11B39,2013-04-01 03:42:00,
2013-03-31 23:47:00,47.3,39.8,29.77,West,264,1.0,6.0,75,0.00,,,0.00,WeatherCatV1.11B39,2013-04-01 03:47:00,
2013-03-31 23:52:00,47.1,39.9,29.77,SSE,163,0.0,9.0,76,0.00,,,0.01,WeatherCatV1.11B39,2013-04-01 03:52:00,
2013-03-31 23:57:00,46.9,40.1,29.77,NW,323,0.0,2.0,77,0.00,,,0.01,WeatherCatV1.11B39,2013-04-01 03:57:00,